Powrót do katalogu

BREEZE-M R/B

AktywnyHEO
NORAD 37259·ROCKET BODY·🇷🇺 Russia

Wystrzelony Dec 26, 2010 z Baikonur Cosmodrome

Loading…

Następne Przeloty (najbliższe 24 godziny)

TLE

ŚwieżeSource: Space-Track

Epoka: Sep 14, 2026, 09:58 UTC

1 37259U 10069B   26257.41539080 -.00000164  00000-0  00000-0 0  9996
2 37259  24.7466 337.5734 6137669 226.9290  64.3626  2.21632405127223

Śledź BREEZE-M R/B w czasie rzeczywistym z AllMySat

Download on the App Store